CDT,Max TemperatureF,Mean TemperatureF,Min TemperatureF,Max Dew PointF,MeanDew PointF,Min DewpointF,Max Humidity, Mean Humidity, Min Humidity, Max Sea Level PressureIn, Mean Sea Level PressureIn, Min Sea Level PressureIn, Max VisibilityMiles, Mean VisibilityMiles, Min VisibilityMiles, Max Wind SpeedMPH, Mean Wind SpeedMPH, Max Gust SpeedMPH,PrecipitationIn, CloudCover, Events, WindDirDegrees
2013-5-1,71,68,65,66,63,61,93,86,78,30.02,29.98,29.92,10,9,5,20,9,29,0.26,7,Rain,100
2013-5-2,68,65,62,64,62,60,100,91,81,30.07,30.02,29.97,10,6,2,15,7,22,0.03,8,Rain,51
2013-5-3,65,52,39,64,46,38,100,83,66,30.06,29.99,29.93,10,6,2,23,11,28,0.40,7,Rain,312
2013-5-4,65,51,36,48,41,37,100,70,39,30.03,29.95,29.88,10,7,0,18,7,25,T,3,Fog-Rain,239
2013-5-5,63,54,44,48,44,40,92,72,51,30.02,29.97,29.92,10,10,10,16,9,21,0.00,7,,303
2013-5-6,68,61,53,56,52,47,86,75,63,30.02,29.98,29.95,10,10,5,17,8,22,T,7,Rain,300
2013-5-7,76,63,50,59,55,50,100,75,50,30.06,30.02,29.95,10,10,10,9,3,,0.00,2,,326
2013-5-8,81,66,51,60,57,54,100,71,42,30.07,30.04,30.02,10,9,2,10,4,16,0.00,0,,179
2013-5-9,79,69,59,65,61,57,90,71,52,30.11,30.04,29.98,10,10,2,18,9,25,0.00,2,Rain-Thunderstorm,192
2013-5-10,78,71,63,67,65,63,100,85,69,30.00,29.92,29.87,10,7,1,25,7,37,0.53,7,Rain-Thunderstorm,157
2013-5-11,75,66,56,64,61,55,100,79,58,30.10,30.01,29.92,10,9,2,16,6,21,0.00,5,,339
2013-5-12,70,60,49,56,47,41,93,65,37,30.26,30.19,30.08,10,10,2,16,8,22,0.00,0,,6
2013-5-13,77,62,46,54,49,43,93,66,38,30.31,30.23,30.14,10,10,10,15,6,17,0.00,0,,190
2013-5-14,83,70,56,57,54,50,86,60,33,30.22,30.16,30.10,10,10,10,18,10,24,0.00,0,,210
2013-5-15,82,71,60,63,58,53,78,63,48,30.17,30.09,30.00,10,10,10,20,10,24,T,0,Rain,205
2013-5-16,77,70,63,67,64,61,93,79,64,29.99,29.95,29.87,10,9,5,20,9,25,0.36,4,Rain-Thunderstorm,158
2013-5-17,83,76,68,73,69,65,97,83,69,29.97,29.92,29.87,10,7,1,16,7,22,0.52,7,Rain-Thunderstorm,201
2013-5-18,87,80,72,73,71,69,93,76,59,30.03,29.97,29.92,10,8,5,17,10,22,0.00,2,,208
2013-5-19,86,78,69,72,69,66,90,76,61,30.00,29.94,29.88,10,9,7,21,11,25,0.00,1,,183
2013-5-20,88,81,74,73,71,70,93,75,57,29.98,29.92,29.84,10,10,8,24,12,30,0.00,4,,179
2013-5-21,88,76,64,73,69,63,93,76,59,29.98,29.87,29.74,10,8,1,34,12,47,1.46,5,Rain-Thunderstorm,211
2013-5-22,82,73,64,67,65,62,93,76,58,29.95,29.90,29.78,10,10,7,20,6,28,T,3,Rain,216
2013-5-23,86,74,61,68,65,61,100,78,55,30.09,30.02,29.96,10,7,0,9,3,24,0.00,0,Fog,4
2013-5-24,79,71,62,68,57,52,93,68,42,30.28,30.20,30.09,10,10,10,16,9,22,0.00,0,,44
2013-5-25,84,72,59,58,53,50,78,56,33,30.30,30.22,30.15,10,10,10,12,5,16,0.00,0,,114
2013-5-26,87,73,59,68,61,56,90,68,45,30.20,30.14,30.09,10,10,10,14,5,17,0.00,0,,159
2013-5-27,86,76,66,69,65,62,84,66,48,30.12,30.06,29.98,10,10,10,17,10,24,0.00,1,,174
2013-5-28,88,79,69,69,65,59,90,65,39,30.04,30.00,29.96,10,10,10,18,11,23,0.00,1,,171
2013-5-29,89,78,66,72,68,62,87,70,53,30.04,29.98,29.92,10,10,10,32,10,41,0.03,3,Rain-Thunderstorm,156
2013-5-30,87,80,72,73,71,69,94,78,61,30.01,29.96,29.89,10,10,2,22,13,30,0.26,5,Rain-Thunderstorm,157
2013-5-31,89,81,73,73,72,71,93,78,63,30.01,29.94,29.86,10,10,6,23,12,31,0.00,5,,172